Time,TemperatureF,DewpointF,PressureIn,WindDirection,WindDirectionDegrees,WindSpeedMPH,WindSpeedGustMPH,Humidity,HourlyPrecipIn,Conditions,Clouds,dailyrainin,SoftwareType,DateUTC
2018-01-18 00:06:00,35.0,27.0,29.86,West,266,12.0,18.0,72,-99.99,,,-99.99,,2018-01-18 06:06:00,
2018-01-18 00:36:00,34.0,26.0,29.83,SW,231,10.0,18.0,72,-99.99,,,-99.99,,2018-01-18 06:36:00,
2018-01-18 01:05:00,34.0,26.0,29.83,WSW,246,11.0,17.0,73,-99.99,,,-99.99,,2018-01-18 07:05:00,
2018-01-18 01:35:00,34.0,26.0,29.82,West,261,11.0,18.0,73,-99.99,,,-99.99,,2018-01-18 07:35:00,
2018-01-18 02:05:00,35.0,26.0,29.81,West,271,14.0,18.0,69,-99.99,,,-99.99,,2018-01-18 08:05:00,
2018-01-18 02:35:00,34.0,26.0,29.82,WNW,300,11.0,17.0,73,-99.99,,,-99.99,,2018-01-18 08:35:00,
2018-01-18 03:08:00,34.0,26.0,29.82,WNW,303,10.0,17.0,71,-99.99,,,-99.99,,2018-01-18 09:08:00,
2018-01-18 03:35:00,31.0,24.0,29.82,West,271,8.0,12.0,74,-99.99,,,-99.99,,2018-01-18 09:35:00,
2018-01-18 04:06:00,29.0,22.0,29.82,WNW,283,5.0,8.0,76,-99.99,,,-99.99,,2018-01-18 10:06:00,
2018-01-18 04:36:00,30.0,23.0,29.82,NW,304,6.0,10.0,75,-99.99,,,-99.99,,2018-01-18 10:36:00,
2018-01-18 05:07:00,30.0,23.0,29.80,West,278,7.0,10.0,74,-99.99,,,-99.99,,2018-01-18 11:07:00,
2018-01-18 05:35:00,26.0,20.0,29.80,West,271,5.0,7.0,78,-99.99,,,-99.99,,2018-01-18 11:35:00,
2018-01-18 06:05:00,24.0,19.0,29.79,WNW,290,5.0,8.0,80,-99.99,,,-99.99,,2018-01-18 12:05:00,
2018-01-18 06:35:00,25.0,19.0,29.80,NE,37,3.0,8.0,79,-99.99,,,-99.99,,2018-01-18 12:35:00,
2018-01-18 07:05:00,25.0,19.0,29.81,NW,316,1.0,4.0,79,-99.99,,,-99.99,,2018-01-18 13:05:00,
2018-01-18 07:35:00,21.0,17.0,29.81,NW,309,0.0,1.0,83,-99.99,,,-99.99,,2018-01-18 13:35:00,
2018-01-18 08:05:00,21.0,17.0,29.82,NW,320,1.0,4.0,83,-99.99,,,-99.99,,2018-01-18 14:05:00,
2018-01-18 08:35:00,20.0,16.0,29.82,West,260,1.0,3.0,83,-99.99,,,-99.99,,2018-01-18 14:35:00,
2018-01-18 09:06:00,19.0,15.0,29.82,West,269,0.0,1.0,83,-99.99,,,-99.99,,2018-01-18 15:06:00,
2018-01-18 09:35:00,20.0,15.0,29.81,West,274,2.0,4.0,81,-99.99,,,-99.99,,2018-01-18 15:35:00,
2018-01-18 10:06:00,23.0,17.0,29.83,West,280,3.0,5.0,78,-99.99,,,-99.99,,2018-01-18 16:06:00,
2018-01-18 10:35:00,23.0,17.0,29.81,WNW,287,1.0,3.0,77,-99.99,,,-99.99,,2018-01-18 16:35:00,
2018-01-18 11:06:00,23.0,17.0,29.82,West,261,2.0,4.0,79,-99.99,,,-99.99,,2018-01-18 17:06:00,
2018-01-18 11:36:00,25.0,19.0,29.81,West,262,2.0,3.0,79,-99.99,,,-99.99,,2018-01-18 17:36:00,
2018-01-18 12:06:00,26.0,20.0,29.81,WSW,246,1.0,3.0,77,-99.99,,,-99.99,,2018-01-18 18:06:00,